Flag for Australia Weather past 2 weeks in Adelaide, South Australia, Australia

50 °F


Feels Like: 49 °F
Forecast: 50 / 80 °F
Wind: 3 mph from Southeast

Location: Adelaide Airport

Current Time: Oct 14, 2015 at 1:17:22 AM

Latest Report: Oct 14, 2015 at 12:30 AM

Visibility: 10 mi

Pressure: 30.18 "Hg

Humidity: 76%

Dew point: 43 °F

Location of AdelaideLocation

Historic Weather in Adelaide — Graph


Adelaide temperature yesterday

Maximum temperature yesterday: 66 °F (at 6:00 PM)
Minimum temperature yesterday: 46 °F (at 5:30 AM)
Average temperature yesterday: 57 °F

Past Weeks' High & Low Weather Summary

High95 °F (Oct 5, 2:30 PM)94% (Oct 10, 7:00 AM)30.57 "Hg (Oct 10, 7:00 AM)
Low39 °F (Sep 29, 5:00 AM)4% (Oct 3, 3:00 PM)29.83 "Hg (Oct 6, 3:30 AM)
Average64 °F51%30.22 "Hg
* Reported Sep 28 10:30 PM — Oct 13 11:30 PM, Adelaide, Weather by CustomWeather, © 2015

Note: Actual official high and low records may vary slightly from our data, if they occured in-between our weather recording intervals... More about our weather records


Adelaide weather history for previous 24 hours

Time TempWeatherWind HumidityBarometerVisibility
11:30 PM
Tue, Oct 13
52 °FClear.5 mph72%30.21 "Hg10 mi
11:00 PM54 °FClear.5 mph67%30.21 "Hg10 mi
10:30 PM54 °FClear.7 mph67%30.21 "Hg10 mi
10:00 PM54 °FClear.7 mph67%30.21 "Hg10 mi
9:30 PM55 °FClear.9 mph63%30.18 "Hg10 mi
9:00 PM55 °FClear.9 mph63%30.18 "Hg10 mi
8:30 PM57 °FClear.12 mph59%30.18 "Hg10 mi
7:30 PM61 °FSunny.14 mph52%30.15 "Hg10 mi
7:00 PM64 °FSunny.15 mph46%30.15 "Hg10 mi
6:30 PM66 °FPassing clouds.15 mph43%30.15 "HgN/A
6:00 PM66 °FSunny.12 mph52%30.15 "Hg10 mi
5:30 PM63 °FSunny.20 mph59%30.15 "Hg10 mi
5:00 PM63 °FSunny.21 mph59%30.15 "Hg10 mi
4:30 PM64 °FSunny.20 mph52%30.15 "Hg10 mi
4:00 PM63 °FSunny.20 mph56%30.15 "Hg10 mi
3:30 PM63 °FSunny.18 mph52%30.15 "Hg10 mi
3:00 PM64 °FSunny.17 mph49%30.18 "Hg10 mi
2:30 PM64 °FSunny.18 mph49%30.18 "Hg10 mi
1:30 PM63 °FPassing clouds.17 mph52%30.18 "HgN/A
1:00 PM63 °FPassing clouds.16 mph49%30.21 "HgN/A
12:30 PM63 °FPassing clouds.13 mph45%30.21 "HgN/A
12:00 PM64 °FPassing clouds.6 mph46%30.24 "HgN/A
11:30 AM63 °FPassing clouds.6 mph42%30.24 "HgN/A
11:00 AM63 °FPassing clouds.5 mph45%30.27 "HgN/A
10:30 AM63 °FPassing clouds.6 mph45%30.27 "HgN/A
10:00 AM61 °FPassing clouds.8 mph48%30.27 "HgN/A
9:30 AM59 °FPassing clouds.10 mph51%30.27 "HgN/A
9:00 AM59 °FPassing clouds.12 mph51%30.27 "HgN/A
8:30 AM59 °FPassing clouds.6 mph55%30.27 "HgN/A
7:30 AM52 °FPassing clouds.5 mph77%30.27 "HgN/A
7:00 AM48 °FPassing clouds.2 mph82%30.24 "HgN/A
6:30 AM48 °FPassing clouds.No wind82%30.24 "HgN/A
6:00 AM48 °FPassing clouds.3 mph82%30.24 "HgN/A
5:30 AM46 °FPassing clouds.5 mph87%30.24 "HgN/A
5:00 AM50 °FPassing clouds.5 mph76%30.24 "HgN/A
4:30 AM50 °FClear.3 mph76%30.24 "Hg10 mi
4:00 AM52 °FClear.5 mph72%30.24 "Hg10 mi
3:30 AM52 °FClear.7 mph72%30.24 "Hg10 mi
3:00 AM52 °FClear.7 mph77%30.24 "Hg10 mi
2:30 AM52 °FPassing clouds.8 mph77%30.24 "HgN/A
2:00 AM52 °FPassing clouds.7 mph77%30.24 "HgN/A
1:30 AM52 °FPassing clouds.8 mph77%30.24 "HgN/A
1:00 AM54 °FPassing clouds.7 mph72%30.24 "HgN/A
Weather by CustomWeather, © 2015

See weather overviewHow to use our weather pages